START_TIME,STEP,MOV.,P1,t_acc.,E44,t_acc.,A3,t_acc.,P10,t_acc.
1981-08-24 21:00:24.260 ,2,0,0.,1.2,0.,1.2,0.,1.2,0.,1.2
1981-08-24 21:00:25.460 ,2,0,0.,1.2,0.,1.2,0.,1.2,0.,1.2
1981-08-24 21:00:26.660 ,2,0,0.,1.2,0.,1.2,0.,1.2,0.,1.2
1981-08-24 21:00:27.860 ,2,0,0.,1.2,0.,1.2,0.,1.2,0.,1.2
1981-08-24 21:00:29.060 ,2,0,0.,1.2,0.,1.2,0.,1.2,0.,1.2
1981-08-24 21:00:30.260 ,2,0,0.,1.2,0.,1.2,0.,1.2,0.,1.2
1981-08-24 21:00:31.460 ,2,0,0.,1.2,0.,1.2,0.,1.2,0.,1.2
1981-08-24 21:00:32.660 ,2,0,0.,1.2,0.,1.2,0.,1.2,0.,1.2
1981-08-24 21:00:33.860 ,2,0,0.,1.2,0.,1.2,0.,1.2,0.,1.2
1981-08-24 21:00:35.060 ,2,0,0.,1.2,0.,1.2,0.,1.2,0.,1.2
1981-08-24 21:00:36.260 ,2,0,0.,1.2,0.,1.2,0.,1.2,0.,1.2
1981-08-24 21:00:37.460 ,2,0,0.,1.2,0.,1.2,0.,1.2,0.,1.2
1981-08-24 21:00:38.660 ,2,0,0.,1.2,0.,1.2,0.,1.2,0.,1.2
1981-08-24 21:00:39.860 ,2,0,1.,1.2,0.,1.2,0.,1.2,0.,1.2
1981-08-24 21:00:41.060 ,2,0,0.,1.2,0.,1.2,0.,1.2,0.,1.2
1981-08-24 21:00:42.260 ,2,0,0.,1.2,0.,1.2,0.,1.2,0.,1.2
1981-08-24 21:00:43.460 ,2,0,0.,1.2,0.,1.2,0.,1.2,0.,1.2
1981-08-24 21:00:44.660 ,2,0,0.,1.2,0.,1.2,0.,1.2,0.,1.2
1981-08-24 21:00:45.860 ,2,0,0.,1.2,0.,1.2,0.,1.2,0.,1.2
1981-08-24 21:00:47.060 ,2,0,0.,1.2,0.,1.2,0.,1.2,0.,1.2
1981-08-24 21:00:48.260 ,1,0,1.,1.2,0.,1.2,0.,1.2,0.,1.2
1981-08-24 21:00:49.460 ,1,0,0.,1.2,0.,1.2,0.,1.2,0.,1.2
1981-08-24 21:00:50.660 ,1,0,1.,1.2,0.,1.2,0.,1.2,0.,1.2
1981-08-24 21:00:51.860 ,1,0,1.,1.2,0.,1.2,0.,1.2,0.,1.2
1981-08-24 21:00:53.060 ,1,0,0.,1.2,0.,1.2,0.,1.2,0.,1.2
1981-08-24 21:00:54.260 ,1,0,0.,1.2,0.,1.2,0.,1.2,0.,1.2
1981-08-24 21:00:55.460 ,1,0,1.,1.2,0.,1.2,0.,1.2,0.,1.2
1981-08-24 21:00:56.660 ,1,0,0.,1.2,0.,1.2,0.,1.2,0.,1.2
1981-08-24 21:00:57.860 ,1,0,0.,1.2,0.,1.2,0.,1.2,0.,1.2
1981-08-24 21:00:59.060 ,1,0,1.,1.2,0.,1.2,0.,1.2,0.,1.2
1981-08-24 21:01:00.260 ,1,0,0.,1.2,0.,1.2,0.,1.2,0.,1.2
1981-08-24 21:01:01.460 ,1,0,0.,1.2,0.,1.2,0.,1.2,0.,1.2
1981-08-24 21:01:02.660 ,1,0,0.,1.2,0.,1.2,0.,1.2,0.,1.2
1981-08-24 21:01:03.860 ,1,0,1.,1.2,0.,1.2,0.,1.2,0.,1.2
1981-08-24 21:01:05.060 ,1,0,1.,1.2,0.,1.2,0.,1.2,0.,1.2
1981-08-24 21:01:06.260 ,1,0,1.,1.2,0.,1.2,0.,1.2,0.,1.2
1981-08-24 21:01:07.460 ,1,0,1.,1.2,0.,1.2,0.,1.2,0.,1.2
1981-08-24 21:01:08.660 ,1,0,1.,1.2,0.,1.2,0.,1.2,0.,1.2
1981-08-24 21:01:09.860 ,1,0,0.,1.2,0.,1.2,0.,1.2,0.,1.2
1981-08-24 21:01:11.060 ,1,0,0.,1.2,0.,1.2,0.,1.2,0.,1.2
1981-08-24 21:01:12.260 ,1,0,0.,1.2,0.,1.2,0.,1.2,0.,1.2
1981-08-24 21:01:13.460 ,1,0,1.,1.2,0.,1.2,0.,1.2,0.,1.2
1981-08-24 21:01:14.660 ,1,0,0.,1.2,0.,1.2,0.,1.2,0.,1.2
1981-08-24 21:01:15.860 ,1,0,0.,1.2,0.,1.2,0.,1.2,0.,1.2
1981-08-24 21:01:17.060 ,1,0,0.,1.2,0.,1.2,0.,1.2,0.,1.2
1981-08-24 21:01:18.260 ,1,0,1.,1.2,0.,1.2,0.,1.2,0.,1.2
1981-08-24 21:01:19.460 ,1,0,0.,1.2,0.,1.2,0.,1.2,0.,1.2
1981-08-24 21:01:20.660 ,1,0,1.,1.2,0.,1.2,0.,1.2,0.,1.2
1981-08-24 21:01:21.860 ,1,0,0.,1.2,0.,1.2,0.,1.2,0.,1.2
1981-08-24 21:01:23.060 ,1,0,0.,1.2,0.,1.2,0.,1.2,0.,1.2
1981-08-24 21:01:24.260 ,1,0,0.,1.2,0.,1.2,0.,1.2,0.,1.2
1981-08-24 21:01:25.460 ,1,0,1.,1.2,0.,1.2,0.,1.2,0.,1.2
1981-08-24 21:01:26.660 ,1,0,1.,1.2,0.,1.2,0.,1.2,0.,1.2
1981-08-24 21:01:27.860 ,1,0,0.,1.2,0.,1.2,0.,1.2,0.,1.2
1981-08-24 21:01:29.060 ,1,0,0.,1.2,0.,1.2,0.,1.2,0.,1.2
1981-08-24 21:01:30.260 ,1,0,0.,1.2,0.,1.2,0.,1.2,0.,1.2
1981-08-24 21:01:31.460 ,1,0,0.,1.2,0.,1.2,0.,1.2,0.,1.2
1981-08-24 21:01:32.660 ,1,0,0.,1.2,0.,1.2,0.,1.2,0.,1.2
1981-08-24 21:01:33.860 ,1,0,0.,1.2,0.,1.2,0.,1.2,0.,1.2
1981-08-24 21:01:35.060 ,1,0,0.,1.2,0.,1.2,0.,1.2,0.,1.2
1981-08-24 21:01:36.260 ,0,0,0.,1.2,0.,1.2,0.,1.2,0.,1.2
1981-08-24 21:01:37.460 ,0,0,0.,1.2,0.,1.2,0.,1.2,0.,1.2
1981-08-24 21:01:38.660 ,0,0,0.,1.2,0.,1.2,0.,1.2,0.,1.2
1981-08-24 21:01:39.860 ,0,0,0.,1.2,0.,1.2,0.,1.2,0.,1.2
1981-08-24 21:01:41.060 ,0,0,0.,1.2,0.,1.2,0.,1.2,0.,1.2
1981-08-24 21:01:42.260 ,0,0,0.,1.2,0.,1.2,0.,1.2,0.,1.2
1981-08-24 21:01:43.460 ,0,0,0.,1.2,0.,1.2,1.,1.2,0.,1.2
1981-08-24 21:01:44.660 ,0,0,0.,1.2,0.,1.2,0.,1.2,0.,1.2
1981-08-24 21:01:45.860 ,0,0,0.,1.2,0.,1.2,0.,1.2,0.,1.2
1981-08-24 21:01:47.060 ,0,0,0.,1.2,0.,1.2,0.,1.2,0.,1.2
1981-08-24 21:01:48.260 ,0,0,0.,1.2,0.,1.2,0.,1.2,0.,1.2
1981-08-24 21:01:49.460 ,0,0,0.,1.2,0.,1.2,0.,1.2,0.,1.2
1981-08-24 21:01:50.660 ,0,0,2.,1.2,0.,1.2,0.,1.2,0.,1.2
1981-08-24 21:01:51.860 ,0,0,0.,1.2,0.,1.2,0.,1.2,0.,1.2
1981-08-24 21:01:53.060 ,0,0,1.,1.2,0.,1.2,0.,1.2,0.,1.2
1981-08-24 21:01:54.260 ,0,0,2.,1.2,0.,1.2,0.,1.2,0.,1.2
1981-08-24 21:01:55.460 ,0,0,0.,1.2,0.,1.2,0.,1.2,0.,1.2
1981-08-24 21:01:56.660 ,0,0,1.,1.2,0.,1.2,0.,1.2,0.,1.2
1981-08-24 21:01:57.860 ,0,0,1.,1.2,0.,1.2,0.,1.2,0.,1.2
1981-08-24 21:01:59.060 ,0,0,1.,1.2,0.,1.2,0.,1.2,0.,1.2
1981-08-24 21:02:00.260 ,0,0,0.,1.2,0.,1.2,0.,1.2,0.,1.2
1981-08-24 21:02:01.460 ,0,0,1.,1.2,0.,1.2,0.,1.2,0.,1.2
1981-08-24 21:02:02.660 ,0,0,0.,1.2,0.,1.2,0.,1.2,0.,1.2
1981-08-24 21:02:03.860 ,0,0,1.,1.2,0.,1.2,0.,1.2,0.,1.2
1981-08-24 21:02:05.060 ,0,0,1.,1.2,0.,1.2,0.,1.2,0.,1.2
1981-08-24 21:02:06.260 ,0,0,0.,1.2,0.,1.2,0.,1.2,0.,1.2
1981-08-24 21:02:07.460 ,0,0,1.,1.2,0.,1.2,0.,1.2,0.,1.2
1981-08-24 21:02:08.660 ,0,0,0.,1.2,0.,1.2,0.,1.2,0.,1.2
1981-08-24 21:02:09.860 ,0,0,0.,1.2,0.,1.2,0.,1.2,0.,1.2
1981-08-24 21:02:11.060 ,0,0,0.,1.2,0.,1.2,0.,1.2,0.,1.2
1981-08-24 21:02:12.260 ,0,0,2.,1.2,0.,1.2,0.,1.2,0.,1.2
1981-08-24 21:02:13.460 ,0,0,1.,1.2,0.,1.2,0.,1.2,0.,1.2
1981-08-24 21:02:14.660 ,0,0,1.,1.2,0.,1.2,0.,1.2,0.,1.2
1981-08-24 21:02:15.860 ,0,0,0.,1.2,0.,1.2,0.,1.2,0.,1.2
1981-08-24 21:02:17.060 ,0,0,0.,1.2,0.,1.2,0.,1.2,0.,1.2
1981-08-24 21:02:18.260 ,0,0,0.,1.2,0.,1.2,0.,1.2,0.,1.2
1981-08-24 21:02:19.460 ,0,0,0.,1.2,0.,1.2,0.,1.2,0.,1.2
1981-08-24 21:02:20.660 ,0,0,1.,1.2,0.,1.2,0.,1.2,0.,1.2
1981-08-24 21:02:21.860 ,0,0,0.,1.2,0.,1.2,0.,1.2,0.,1.2
1981-08-24 21:02:23.060 ,0,0,0.,1.2,0.,1.2,0.,1.2,0.,1.2
1981-08-24 21:02:24.260 ,0,0,0.,1.2,0.,1.2,0.,1.2,0.,1.2
1981-08-24 21:02:25.460 ,0,0,0.,1.2,0.,1.2,0.,1.2,0.,1.2
1981-08-24 21:02:26.660 ,0,0,0.,1.2,0.,1.2,0.,1.2,0.,1.2
1981-08-24 21:02:27.860 ,0,0,0.,1.2,0.,1.2,0.,1.2,0.,1.2
1981-08-24 21:02:29.060 ,0,0,0.,1.2,0.,1.2,0.,1.2,0.,1.2
1981-08-24 21:02:30.260 ,0,0,0.,1.2,0.,1.2,0.,1.2,0.,1.2
1981-08-24 21:02:31.460 ,0,0,0.,1.2,0.,1.2,0.,1.2,0.,1.2
1981-08-24 21:02:32.660 ,0,0,0.,1.2,0.,1.2,0.,1.2,0.,1.2
1981-08-24 21:02:33.860 ,0,0,1.,1.2,0.,1.2,0.,1.2,0.,1.2
1981-08-24 21:02:35.060 ,0,0,0.,1.2,0.,1.2,0.,1.2,0.,1.2
1981-08-24 21:02:36.260 ,0,0,1.,1.2,0.,1.2,0.,1.2,0.,1.2
1981-08-24 21:02:37.460 ,0,0,0.,1.2,0.,1.2,0.,1.2,0.,1.2
1981-08-24 21:02:38.660 ,0,0,1.,1.2,0.,1.2,0.,1.2,0.,1.2
1981-08-24 21:02:39.860 ,0,0,1.,1.2,0.,1.2,0.,1.2,0.,1.2
1981-08-24 21:02:41.060 ,0,0,0.,1.2,0.,1.2,0.,1.2,0.,1.2
1981-08-24 21:02:42.260 ,0,0,0.,1.2,0.,1.2,0.,1.2,0.,1.2
1981-08-24 21:02:43.460 ,0,0,0.,1.2,0.,1.2,0.,1.2,0.,1.2
1981-08-24 21:02:44.660 ,0,0,0.,1.2,0.,1.2,0.,1.2,0.,1.2
1981-08-24 21:02:45.860 ,0,0,0.,1.2,0.,1.2,0.,1.2,0.,1.2
1981-08-24 21:02:47.060 ,0,0,0.,1.2,0.,1.2,0.,1.2,0.,1.2
1981-08-24 21:02:48.260 ,0,0,1.,1.2,0.,1.2,0.,1.2,0.,1.2
1981-08-24 21:02:49.460 ,0,0,1.,1.2,0.,1.2,0.,1.2,0.,1.2
1981-08-24 21:02:50.660 ,0,0,0.,1.2,0.,1.2,0.,1.2,0.,1.2
1981-08-24 21:02:51.860 ,0,0,1.,1.2,0.,1.2,0.,1.2,0.,1.2
1981-08-24 21:02:53.060 ,0,0,0.,1.2,0.,1.2,0.,1.2,0.,1.2
1981-08-24 21:02:54.260 ,0,0,0.,1.2,0.,1.2,0.,1.2,0.,1.2
1981-08-24 21:02:55.460 ,0,0,1.,1.2,0.,1.2,0.,1.2,0.,1.2
1981-08-24 21:02:56.660 ,0,0,0.,1.2,0.,1.2,0.,1.2,0.,1.2
1981-08-24 21:02:57.860 ,0,0,1.,1.2,0.,1.2,0.,1.2,0.,1.2
1981-08-24 21:02:59.060 ,0,0,0.,1.2,0.,1.2,0.,1.2,0.,1.2
1981-08-24 21:03:00.260 ,0,0,1.,1.2,0.,1.2,0.,1.2,0.,1.2
1981-08-24 21:03:01.460 ,0,0,0.,1.2,0.,1.2,0.,1.2,0.,1.2
1981-08-24 21:03:02.660 ,0,0,0.,1.2,0.,1.2,0.,1.2,0.,1.2
1981-08-24 21:03:03.860 ,0,0,0.,1.2,0.,1.2,0.,1.2,0.,1.2
1981-08-24 21:03:05.060 ,0,0,0.,1.2,0.,1.2,0.,1.2,0.,1.2
1981-08-24 21:03:06.260 ,0,0,0.,1.2,0.,1.2,0.,1.2,0.,1.2
1981-08-24 21:03:07.460 ,0,0,0.,1.2,0.,1.2,0.,1.2,0.,1.2
1981-08-24 21:03:08.660 ,0,0,0.,1.2,0.,1.2,0.,1.2,0.,1.2
1981-08-24 21:03:09.860 ,0,0,1.,1.2,0.,1.2,0.,1.2,0.,1.2
1981-08-24 21:03:11.060 ,0,0,0.,1.2,0.,1.2,0.,1.2,0.,1.2
1981-08-24 21:03:12.250 ,1,0,3.,1.2,0.,1.2,0.,1.2,0.,1.2
1981-08-24 21:03:13.450 ,1,0,1.,1.2,0.,1.2,0.,1.2,0.,1.2
1981-08-24 21:03:14.650 ,1,0,0.,1.2,0.,1.2,0.,1.2,0.,1.2
1981-08-24 21:03:15.850 ,1,0,0.,1.2,0.,1.2,0.,1.2,0.,1.2
1981-08-24 21:03:17.050 ,1,0,0.,1.2,0.,1.2,0.,1.2,0.,1.2
1981-08-24 21:03:18.250 ,1,0,0.,1.2,0.,1.2,0.,1.2,0.,1.2
1981-08-24 21:03:19.450 ,1,0,0.,1.2,0.,1.2,0.,1.2,0.,1.2
1981-08-24 21:03:20.650 ,1,0,0.,1.2,0.,1.2,0.,1.2,0.,1.2
1981-08-24 21:03:21.850 ,1,0,0.,1.2,0.,1.2,0.,1.2,0.,1.2
1981-08-24 21:03:23.050 ,1,0,0.,1.2,0.,1.2,0.,1.2,0.,1.2
1981-08-24 21:03:24.250 ,1,0,1.,1.2,0.,1.2,0.,1.2,0.,1.2
1981-08-24 21:03:25.450 ,1,0,1.,1.2,0.,1.2,0.,1.2,0.,1.2
1981-08-24 21:03:26.650 ,1,0,2.,1.2,0.,1.2,0.,1.2,0.,1.2
1981-08-24 21:03:27.850 ,1,0,2.,1.2,0.,1.2,1.,1.2,0.,1.2
1981-08-24 21:03:29.050 ,1,0,0.,1.2,0.,1.2,0.,1.2,0.,1.2
1981-08-24 21:03:30.250 ,1,0,0.,1.2,0.,1.2,0.,1.2,0.,1.2
1981-08-24 21:03:31.450 ,1,0,0.,1.2,0.,1.2,0.,1.2,0.,1.2
1981-08-24 21:03:32.650 ,1,0,0.,1.2,0.,1.2,0.,1.2,0.,1.2
1981-08-24 21:03:33.850 ,1,0,0.,1.2,0.,1.2,0.,1.2,0.,1.2
1981-08-24 21:03:35.050 ,1,0,0.,1.2,0.,1.2,0.,1.2,0.,1.2
1981-08-24 21:03:36.250 ,1,0,0.,1.2,0.,1.2,0.,1.2,0.,1.2
1981-08-24 21:03:37.450 ,1,0,0.,1.2,0.,1.2,0.,1.2,0.,1.2
1981-08-24 21:03:38.650 ,1,0,0.,1.2,0.,1.2,0.,1.2,0.,1.2
1981-08-24 21:03:39.850 ,1,0,0.,1.2,0.,1.2,0.,1.2,0.,1.2
1981-08-24 21:03:41.050 ,1,0,1.,1.2,0.,1.2,0.,1.2,0.,1.2
1981-08-24 21:03:42.250 ,1,0,0.,1.2,0.,1.2,0.,1.2,0.,1.2
1981-08-24 21:03:43.450 ,1,0,0.,1.2,0.,1.2,0.,1.2,0.,1.2
1981-08-24 21:03:44.650 ,1,0,0.,1.2,0.,1.2,0.,1.2,0.,1.2
1981-08-24 21:03:45.850 ,1,0,0.,1.2,0.,1.2,0.,1.2,0.,1.2
1981-08-24 21:03:47.050 ,1,0,0.,1.2,0.,1.2,0.,1.2,0.,1.2
1981-08-24 21:03:48.250 ,1,0,0.,1.2,0.,1.2,0.,1.2,0.,1.2
1981-08-24 21:03:49.450 ,1,0,0.,1.2,0.,1.2,0.,1.2,0.,1.2
1981-08-24 21:03:50.650 ,1,0,0.,1.2,0.,1.2,0.,1.2,0.,1.2
1981-08-24 21:03:51.850 ,1,0,0.,1.2,0.,1.2,0.,1.2,0.,1.2
1981-08-24 21:03:53.050 ,1,0,0.,1.2,0.,1.2,0.,1.2,0.,1.2
1981-08-24 21:03:54.250 ,1,0,0.,1.2,0.,1.2,0.,1.2,0.,1.2
1981-08-24 21:03:55.450 ,1,0,0.,1.2,0.,1.2,0.,1.2,0.,1.2
1981-08-24 21:03:56.650 ,1,0,0.,1.2,0.,1.2,0.,1.2,0.,1.2
1981-08-24 21:03:57.850 ,1,0,1.,1.2,0.,1.2,0.,1.2,0.,1.2
1981-08-24 21:03:59.050 ,1,0,0.,1.2,0.,1.2,0.,1.2,0.,1.2
1981-08-24 21:04:00.250 ,2,0,1.,1.2,0.,1.2,0.,1.2,0.,1.2
1981-08-24 21:04:01.450 ,2,0,1.,1.2,0.,1.2,0.,1.2,0.,1.2
1981-08-24 21:04:02.650 ,2,0,0.,1.2,0.,1.2,0.,1.2,0.,1.2
1981-08-24 21:04:03.850 ,2,0,0.,1.2,0.,1.2,0.,1.2,0.,1.2
1981-08-24 21:04:05.050 ,2,0,0.,1.2,0.,1.2,0.,1.2,0.,1.2
1981-08-24 21:04:06.250 ,2,0,0.,1.2,0.,1.2,0.,1.2,0.,1.2
1981-08-24 21:04:07.450 ,2,0,0.,1.2,0.,1.2,0.,1.2,0.,1.2
1981-08-24 21:04:08.650 ,2,0,2.,1.2,0.,1.2,0.,1.2,0.,1.2
1981-08-24 21:04:09.850 ,2,0,0.,1.2,0.,1.2,0.,1.2,0.,1.2
1981-08-24 21:04:11.050 ,2,0,0.,1.2,0.,1.2,0.,1.2,0.,1.2
1981-08-24 21:04:12.250 ,2,0,1.,1.2,0.,1.2,0.,1.2,0.,1.2
1981-08-24 21:04:13.450 ,2,0,0.,1.2,0.,1.2,0.,1.2,0.,1.2
1981-08-24 21:04:14.650 ,2,0,0.,1.2,0.,1.2,0.,1.2,0.,1.2
1981-08-24 21:04:15.850 ,2,0,0.,1.2,0.,1.2,0.,1.2,0.,1.2
1981-08-24 21:04:17.050 ,2,0,0.,1.2,0.,1.2,0.,1.2,0.,1.2
1981-08-24 21:04:18.250 ,2,0,2.,1.2,0.,1.2,0.,1.2,0.,1.2
1981-08-24 21:04:19.450 ,2,0,1.,1.2,0.,1.2,0.,1.2,0.,1.2
1981-08-24 21:04:20.650 ,2,0,1.,1.2,0.,1.2,0.,1.2,0.,1.2
1981-08-24 21:04:21.850 ,2,0,1.,1.2,0.,1.2,0.,1.2,0.,1.2
1981-08-24 21:04:23.050 ,2,0,0.,1.2,0.,1.2,0.,1.2,0.,1.2
1981-08-24 21:04:24.250 ,2,0,0.,1.2,0.,1.2,0.,1.2,0.,1.2
1981-08-24 21:04:25.450 ,2,0,1.,1.2,0.,1.2,0.,1.2,0.,1.2
1981-08-24 21:04:26.650 ,2,0,0.,1.2,0.,1.2,0.,1.2,0.,1.2
1981-08-24 21:04:27.850 ,2,0,0.,1.2,0.,1.2,0.,1.2,0.,1.2
1981-08-24 21:04:29.050 ,2,0,0.,1.2,0.,1.2,0.,1.2,0.,1.2
1981-08-24 21:04:30.250 ,2,0,1.,1.2,0.,1.2,0.,1.2,0.,1.2
1981-08-24 21:04:31.450 ,2,0,0.,1.2,0.,1.2,0.,1.2,0.,1.2
1981-08-24 21:04:32.650 ,2,0,0.,1.2,0.,1.2,0.,1.2,0.,1.2
1981-08-24 21:04:33.850 ,2,0,0.,1.2,0.,1.2,0.,1.2,0.,1.2
1981-08-24 21:04:35.050 ,2,0,0.,1.2,0.,1.2,0.,1.2,0.,1.2
1981-08-24 21:04:36.250 ,2,0,0.,1.2,0.,1.2,0.,1.2,0.,1.2
1981-08-24 21:04:37.450 ,2,0,0.,1.2,0.,1.2,0.,1.2,0.,1.2
1981-08-24 21:04:38.650 ,2,0,0.,1.2,0.,1.2,0.,1.2,0.,1.2
1981-08-24 21:04:39.850 ,2,0,0.,1.2,0.,1.2,0.,1.2,0.,1.2
1981-08-24 21:04:41.050 ,2,0,0.,1.2,0.,1.2,0.,1.2,0.,1.2
1981-08-24 21:04:42.250 ,2,0,0.,1.2,0.,1.2,0.,1.2,0.,1.2
1981-08-24 21:04:43.450 ,2,0,0.,1.2,0.,1.2,0.,1.2,0.,1.2
1981-08-24 21:04:44.650 ,2,0,2.,1.2,0.,1.2,0.,1.2,0.,1.2
1981-08-24 21:04:45.850 ,2,0,0.,1.2,0.,1.2,0.,1.2,0.,1.2
1981-08-24 21:04:47.050 ,2,0,0.,1.2,0.,1.2,0.,1.2,0.,1.2
1981-08-24 21:04:48.250 ,3,0,0.,1.2,0.,1.2,0.,1.2,0.,1.2
1981-08-24 21:04:49.450 ,3,0,0.,1.2,0.,1.2,0.,1.2,0.,1.2
1981-08-24 21:04:50.650 ,3,0,0.,1.2,0.,1.2,0.,1.2,0.,1.2
1981-08-24 21:04:51.850 ,3,0,1.,1.2,0.,1.2,0.,1.2,0.,1.2
1981-08-24 21:04:53.050 ,3,0,2.,1.2,0.,1.2,0.,1.2,0.,1.2
1981-08-24 21:04:54.250 ,3,0,1.,1.2,0.,1.2,0.,1.2,0.,1.2
1981-08-24 21:04:55.450 ,3,0,0.,1.2,0.,1.2,0.,1.2,0.,1.2
1981-08-24 21:04:56.650 ,3,0,0.,1.2,0.,1.2,0.,1.2,0.,1.2
1981-08-24 21:04:57.850 ,3,0,0.,1.2,0.,1.2,0.,1.2,0.,1.2
1981-08-24 21:04:59.050 ,3,0,0.,1.2,0.,1.2,0.,1.2,0.,1.2
1981-08-24 21:05:00.250 ,3,0,0.,1.2,0.,1.2,0.,1.2,0.,1.2
1981-08-24 21:05:01.450 ,3,0,0.,1.2,0.,1.2,0.,1.2,0.,1.2
1981-08-24 21:05:02.650 ,3,0,1.,1.2,0.,1.2,0.,1.2,0.,1.2
1981-08-24 21:05:03.850 ,3,0,0.,1.2,0.,1.2,0.,1.2,0.,1.2
1981-08-24 21:05:05.050 ,3,0,1.,1.2,0.,1.2,0.,1.2,0.,1.2
1981-08-24 21:05:06.250 ,3,0,0.,1.2,0.,1.2,0.,1.2,0.,1.2
1981-08-24 21:05:07.450 ,3,0,1.,1.2,0.,1.2,0.,1.2,0.,1.2
1981-08-24 21:05:08.650 ,3,0,0.,1.2,0.,1.2,0.,1.2,0.,1.2
1981-08-24 21:05:09.850 ,3,0,0.,1.2,0.,1.2,0.,1.2,0.,1.2
1981-08-24 21:05:11.050 ,3,0,0.,1.2,0.,1.2,0.,1.2,0.,1.2
1981-08-24 21:05:12.250 ,3,0,0.,1.2,0.,1.2,0.,1.2,0.,1.2
1981-08-24 21:05:13.450 ,3,0,0.,1.2,0.,1.2,0.,1.2,0.,1.2
1981-08-24 21:05:14.650 ,3,0,1.,1.2,0.,1.2,0.,1.2,0.,1.2
1981-08-24 21:05:15.850 ,3,0,0.,1.2,0.,1.2,0.,1.2,0.,1.2
1981-08-24 21:05:17.050 ,3,0,0.,1.2,0.,1.2,0.,1.2,0.,1.2
1981-08-24 21:05:18.250 ,3,0,0.,1.2,0.,1.2,0.,1.2,0.,1.2
1981-08-24 21:05:19.450 ,3,0,1.,1.2,0.,1.2,0.,1.2,0.,1.2
1981-08-24 21:05:20.650 ,3,0,0.,1.2,0.,1.2,0.,1.2,0.,1.2
1981-08-24 21:05:21.850 ,3,0,0.,1.2,0.,1.2,0.,1.2,0.,1.2
1981-08-24 21:05:23.050 ,3,0,1.,1.2,0.,1.2,0.,1.2,0.,1.2
1981-08-24 21:05:24.250 ,3,0,0.,1.2,0.,1.2,0.,1.2,0.,1.2
1981-08-24 21:05:25.450 ,3,0,0.,1.2,0.,1.2,0.,1.2,0.,1.2
1981-08-24 21:05:26.650 ,3,0,0.,1.2,0.,1.2,0.,1.2,0.,1.2
1981-08-24 21:05:27.850 ,3,0,0.,1.2,0.,1.2,0.,1.2,0.,1.2
1981-08-24 21:05:29.050 ,3,0,2.,1.2,0.,1.2,0.,1.2,0.,1.2
1981-08-24 21:05:30.250 ,3,0,0.,1.2,0.,1.2,0.,1.2,0.,1.2
1981-08-24 21:05:31.450 ,3,0,2.,1.2,0.,1.2,0.,1.2,0.,1.2
1981-08-24 21:05:32.650 ,3,0,0.,1.2,0.,1.2,0.,1.2,0.,1.2
1981-08-24 21:05:33.850 ,3,0,0.,1.2,0.,1.2,0.,1.2,0.,1.2
1981-08-24 21:05:35.050 ,3,0,1.,1.2,0.,1.2,0.,1.2,0.,1.2
1981-08-24 21:05:36.250 ,4,0,0.,1.2,0.,1.2,0.,1.2,0.,1.2
1981-08-24 21:05:37.450 ,4,0,0.,1.2,0.,1.2,0.,1.2,0.,1.2
1981-08-24 21:05:38.650 ,4,0,0.,1.2,0.,1.2,0.,1.2,0.,1.2
1981-08-24 21:05:39.850 ,4,0,0.,1.2,0.,1.2,0.,1.2,0.,1.2
1981-08-24 21:05:41.050 ,4,0,0.,1.2,0.,1.2,0.,1.2,0.,1.2
1981-08-24 21:05:42.250 ,4,0,0.,1.2,0.,1.2,0.,1.2,0.,1.2
1981-08-24 21:05:43.450 ,4,0,0.,1.2,0.,1.2,0.,1.2,0.,1.2
1981-08-24 21:05:44.650 ,4,0,0.,1.2,0.,1.2,0.,1.2,0.,1.2
1981-08-24 21:05:45.850 ,4,0,0.,1.2,0.,1.2,0.,1.2,0.,1.2
1981-08-24 21:05:47.050 ,4,0,1.,1.2,0.,1.2,0.,1.2,0.,1.2
1981-08-24 21:05:48.250 ,4,0,1.,1.2,0.,1.2,0.,1.2,0.,1.2
1981-08-24 21:05:49.450 ,4,0,0.,1.2,0.,1.2,0.,1.2,0.,1.2
1981-08-24 21:05:50.650 ,4,0,1.,1.2,0.,1.2,0.,1.2,0.,1.2
1981-08-24 21:05:51.850 ,4,0,0.,1.2,0.,1.2,0.,1.2,0.,1.2
1981-08-24 21:05:53.050 ,4,0,0.,1.2,0.,1.2,0.,1.2,0.,1.2
1981-08-24 21:05:54.250 ,4,0,0.,1.2,0.,1.2,0.,1.2,0.,1.2
1981-08-24 21:05:55.450 ,4,0,0.,1.2,0.,1.2,0.,1.2,0.,1.2
1981-08-24 21:05:56.650 ,4,0,1.,1.2,0.,1.2,0.,1.2,0.,1.2
1981-08-24 21:05:57.850 ,4,0,0.,1.2,0.,1.2,0.,1.2,0.,1.2
1981-08-24 21:05:59.050 ,4,0,0.,1.2,0.,1.2,0.,1.2,0.,1.2
1981-08-24 21:06:00.250 ,4,0,0.,1.2,0.,1.2,0.,1.2,0.,1.2
1981-08-24 21:06:01.450 ,4,0,0.,1.2,0.,1.2,0.,1.2,0.,1.2
1981-08-24 21:06:02.650 ,4,0,0.,1.2,0.,1.2,0.,1.2,0.,1.2
1981-08-24 21:06:03.850 ,4,0,0.,1.2,0.,1.2,0.,1.2,0.,1.2
1981-08-24 21:06:05.050 ,4,0,1.,1.2,0.,1.2,0.,1.2,0.,1.2
1981-08-24 21:06:06.250 ,4,0,0.,1.2,0.,1.2,0.,1.2,0.,1.2
1981-08-24 21:06:07.450 ,4,0,1.,1.2,0.,1.2,0.,1.2,0.,1.2
1981-08-24 21:06:08.650 ,4,0,0.,1.2,0.,1.2,0.,1.2,0.,1.2
1981-08-24 21:06:09.850 ,4,0,1.,1.2,0.,1.2,0.,1.2,0.,1.2
1981-08-24 21:06:11.050 ,4,0,0.,1.2,0.,1.2,0.,1.2,0.,1.2
1981-08-24 21:06:12.250 ,4,0,0.,1.2,0.,1.2,0.,1.2,0.,1.2
1981-08-24 21:06:13.450 ,4,0,0.,1.2,0.,1.2,0.,1.2,0.,1.2
1981-08-24 21:06:14.650 ,4,0,1.,1.2,0.,1.2,0.,1.2,0.,1.2
1981-08-24 21:06:15.850 ,4,0,0.,1.2,0.,1.2,0.,1.2,0.,1.2
1981-08-24 21:06:17.050 ,4,0,0.,1.2,0.,1.2,0.,1.2,0.,1.2
1981-08-24 21:06:18.250 ,4,0,0.,1.2,0.,1.2,0.,1.2,0.,1.2
1981-08-24 21:06:19.450 ,4,0,0.,1.2,0.,1.2,0.,1.2,0.,1.2
1981-08-24 21:06:20.650 ,4,0,0.,1.2,0.,1.2,0.,1.2,0.,1.2
1981-08-24 21:06:21.850 ,4,0,0.,1.2,0.,1.2,0.,1.2,0.,1.2
1981-08-24 21:06:23.050 ,4,0,0.,1.2,0.,1.2,0.,1.2,0.,1.2
1981-08-24 21:06:24.250 ,5,0,0.,1.2,0.,1.2,0.,1.2,0.,1.2
1981-08-24 21:06:25.450 ,5,0,1.,1.2,0.,1.2,0.,1.2,0.,1.2
1981-08-24 21:06:26.650 ,5,0,0.,1.2,0.,1.2,0.,1.2,0.,1.2
1981-08-24 21:06:27.850 ,5,0,0.,1.2,0.,1.2,0.,1.2,0.,1.2
1981-08-24 21:06:29.050 ,5,0,0.,1.2,0.,1.2,0.,1.2,0.,1.2
1981-08-24 21:06:30.250 ,5,0,1.,1.2,0.,1.2,0.,1.2,0.,1.2
1981-08-24 21:06:31.450 ,5,0,0.,1.2,0.,1.2,0.,1.2,0.,1.2
1981-08-24 21:06:32.650 ,5,0,0.,1.2,0.,1.2,0.,1.2,0.,1.2
1981-08-24 21:06:33.850 ,5,0,0.,1.2,0.,1.2,0.,1.2,0.,1.2
1981-08-24 21:06:35.050 ,5,0,0.,1.2,0.,1.2,0.,1.2,0.,1.2
1981-08-24 21:06:36.250 ,5,0,1.,1.2,0.,1.2,0.,1.2,0.,1.2
1981-08-24 21:06:37.450 ,5,0,0.,1.2,0.,1.2,0.,1.2,0.,1.2
1981-08-24 21:06:38.650 ,5,0,0.,1.2,0.,1.2,0.,1.2,0.,1.2
1981-08-24 21:06:39.850 ,5,0,0.,1.2,0.,1.2,0.,1.2,0.,1.2
1981-08-24 21:06:41.050 ,5,0,0.,1.2,0.,1.2,0.,1.2,0.,1.2
1981-08-24 21:06:42.250 ,5,0,1.,1.2,0.,1.2,0.,1.2,0.,1.2
1981-08-24 21:06:43.450 ,5,0,0.,1.2,0.,1.2,0.,1.2,0.,1.2
1981-08-24 21:06:44.650 ,5,0,0.,1.2,0.,1.2,0.,1.2,0.,1.2
1981-08-24 21:06:45.850 ,5,0,0.,1.2,0.,1.2,0.,1.2,0.,1.2
1981-08-24 21:06:47.050 ,5,0,1.,1.2,0.,1.2,0.,1.2,0.,1.2
1981-08-24 21:06:48.250 ,5,0,0.,1.2,0.,1.2,0.,1.2,0.,1.2
1981-08-24 21:06:49.450 ,5,0,0.,1.2,0.,1.2,0.,1.2,0.,1.2
1981-08-24 21:06:50.650 ,5,0,1.,1.2,0.,1.2,0.,1.2,0.,1.2
1981-08-24 21:06:51.850 ,5,0,0.,1.2,0.,1.2,0.,1.2,0.,1.2
1981-08-24 21:06:53.050 ,5,0,1.,1.2,0.,1.2,0.,1.2,0.,1.2
1981-08-24 21:06:54.250 ,5,0,0.,1.2,0.,1.2,0.,1.2,0.,1.2
1981-08-24 21:06:55.450 ,5,0,0.,1.2,0.,1.2,0.,1.2,0.,1.2
1981-08-24 21:06:56.650 ,5,0,0.,1.2,0.,1.2,0.,1.2,0.,1.2
1981-08-24 21:06:57.850 ,5,0,1.,1.2,0.,1.2,0.,1.2,0.,1.2
1981-08-24 21:06:59.050 ,5,0,1.,1.2,0.,1.2,0.,1.2,0.,1.2
1981-08-24 21:07:00.250 ,5,0,1.,1.2,0.,1.2,0.,1.2,0.,1.2
1981-08-24 21:07:01.450 ,5,0,1.,1.2,0.,1.2,0.,1.2,0.,1.2
1981-08-24 21:07:02.650 ,5,0,0.,1.2,0.,1.2,0.,1.2,0.,1.2
1981-08-24 21:07:03.850 ,5,0,0.,1.2,0.,1.2,0.,1.2,0.,1.2
1981-08-24 21:07:05.050 ,5,0,2.,1.2,0.,1.2,0.,1.2,0.,1.2
1981-08-24 21:07:06.250 ,5,0,0.,1.2,0.,1.2,0.,1.2,0.,1.2
1981-08-24 21:07:07.450 ,5,0,1.,1.2,0.,1.2,0.,1.2,0.,1.2
1981-08-24 21:07:08.650 ,5,0,1.,1.2,0.,1.2,0.,1.2,0.,1.2
1981-08-24 21:07:09.850 ,5,0,0.,1.2,0.,1.2,0.,1.2,0.,1.2
1981-08-24 21:07:11.050 ,5,0,0.,1.2,0.,1.2,0.,1.2,0.,1.2
1981-08-24 21:07:12.250 ,6,0,0.,1.2,0.,1.2,0.,1.2,0.,1.2
1981-08-24 21:07:13.450 ,6,0,0.,1.2,0.,1.2,0.,1.2,0.,1.2
1981-08-24 21:07:14.650 ,6,0,0.,1.2,0.,1.2,0.,1.2,0.,1.2
1981-08-24 21:07:15.850 ,6,0,1.,1.2,0.,1.2,0.,1.2,0.,1.2
1981-08-24 21:07:17.050 ,6,0,1.,1.2,0.,1.2,0.,1.2,0.,1.2
1981-08-24 21:07:18.250 ,6,0,4.,1.2,0.,1.2,0.,1.2,0.,1.2
1981-08-24 21:07:19.450 ,6,0,0.,1.2,0.,1.2,0.,1.2,0.,1.2
1981-08-24 21:07:20.650 ,6,0,0.,1.2,0.,1.2,0.,1.2,0.,1.2
1981-08-24 21:07:21.850 ,6,0,0.,1.2,0.,1.2,0.,1.2,0.,1.2
1981-08-24 21:07:23.050 ,6,0,0.,1.2,0.,1.2,0.,1.2,0.,1.2
1981-08-24 21:07:24.250 ,6,0,0.,1.2,0.,1.2,0.,1.2,0.,1.2
1981-08-24 21:07:25.450 ,6,0,1.,1.2,0.,1.2,0.,1.2,0.,1.2
1981-08-24 21:07:26.650 ,6,0,0.,1.2,0.,1.2,0.,1.2,0.,1.2
1981-08-24 21:07:27.850 ,6,0,1.,1.2,0.,1.2,0.,1.2,0.,1.2
1981-08-24 21:07:29.050 ,6,0,0.,1.2,0.,1.2,0.,1.2,0.,1.2
1981-08-24 21:07:30.250 ,6,0,0.,1.2,0.,1.2,0.,1.2,0.,1.2
1981-08-24 21:07:31.450 ,6,0,0.,1.2,0.,1.2,0.,1.2,0.,1.2
1981-08-24 21:07:32.650 ,6,0,0.,1.2,0.,1.2,0.,1.2,0.,1.2
1981-08-24 21:07:33.850 ,6,0,0.,1.2,0.,1.2,0.,1.2,0.,1.2
1981-08-24 21:07:35.050 ,6,0,0.,1.2,0.,1.2,0.,1.2,0.,1.2
1981-08-24 21:07:36.250 ,6,0,0.,1.2,0.,1.2,0.,1.2,0.,1.2
1981-08-24 21:07:37.450 ,6,0,1.,1.2,0.,1.2,0.,1.2,0.,1.2
1981-08-24 21:07:38.650 ,6,0,0.,1.2,0.,1.2,0.,1.2,0.,1.2
1981-08-24 21:07:39.850 ,6,0,0.,1.2,0.,1.2,0.,1.2,0.,1.2
1981-08-24 21:07:41.050 ,6,0,0.,1.2,0.,1.2,0.,1.2,0.,1.2
1981-08-24 21:07:42.250 ,6,0,0.,1.2,0.,1.2,0.,1.2,0.,1.2
1981-08-24 21:07:43.450 ,6,0,0.,1.2,0.,1.2,1.,1.2,0.,1.2
1981-08-24 21:07:44.650 ,6,0,0.,1.2,0.,1.2,0.,1.2,0.,1.2
1981-08-24 21:07:45.850 ,6,0,0.,1.2,0.,1.2,0.,1.2,0.,1.2
1981-08-24 21:07:47.050 ,6,0,0.,1.2,0.,1.2,0.,1.2,0.,1.2
1981-08-24 21:07:48.250 ,6,0,0.,1.2,0.,1.2,0.,1.2,0.,1.2
1981-08-24 21:07:49.450 ,6,0,1.,1.2,0.,1.2,0.,1.2,0.,1.2
1981-08-24 21:07:50.650 ,6,0,0.,1.2,0.,1.2,0.,1.2,0.,1.2
1981-08-24 21:07:51.850 ,6,0,0.,1.2,0.,1.2,0.,1.2,0.,1.2
1981-08-24 21:07:53.050 ,6,0,0.,1.2,0.,1.2,0.,1.2,0.,1.2
1981-08-24 21:07:54.250 ,6,0,1.,1.2,0.,1.2,0.,1.2,0.,1.2
1981-08-24 21:07:55.450 ,6,0,0.,1.2,0.,1.2,0.,1.2,0.,1.2
1981-08-24 21:07:56.650 ,6,0,0.,1.2,0.,1.2,0.,1.2,0.,1.2
1981-08-24 21:07:57.850 ,6,0,0.,1.2,0.,1.2,0.,1.2,0.,1.2
1981-08-24 21:07:59.050 ,6,0,1.,1.2,0.,1.2,0.,1.2,0.,1.2
1981-08-24 21:08:00.250 ,7,0,1.,1.2,0.,1.2,0.,1.2,0.,1.2
1981-08-24 21:08:01.450 ,7,0,0.,1.2,0.,1.2,0.,1.2,0.,1.2
1981-08-24 21:08:02.650 ,7,0,0.,1.2,0.,1.2,0.,1.2,0.,1.2
1981-08-24 21:08:03.850 ,7,0,0.,1.2,0.,1.2,0.,1.2,0.,1.2
1981-08-24 21:08:05.050 ,7,0,0.,1.2,0.,1.2,0.,1.2,0.,1.2
1981-08-24 21:08:06.250 ,7,0,0.,1.2,0.,1.2,0.,1.2,0.,1.2
1981-08-24 21:08:07.450 ,7,0,0.,1.2,0.,1.2,8.,1.2,0.,1.2
1981-08-24 21:08:08.650 ,7,0,0.,1.2,0.,1.2,5.,1.2,0.,1.2
1981-08-24 21:08:09.850 ,7,0,0.,1.2,0.,1.2,5.,1.2,0.,1.2
1981-08-24 21:08:11.050 ,7,0,0.,1.2,0.,1.2,5.,1.2,0.,1.2
1981-08-24 21:08:12.250 ,7,0,0.,1.2,0.,1.2,4.,1.2,0.,1.2
1981-08-24 21:08:13.450 ,7,0,0.,1.2,0.,1.2,5.,1.2,0.,1.2
1981-08-24 21:08:14.650 ,7,0,0.,1.2,0.,1.2,2.,1.2,0.,1.2
1981-08-24 21:08:15.850 ,7,0,0.,1.2,0.,1.2,2.,1.2,0.,1.2
1981-08-24 21:08:17.050 ,7,0,0.,1.2,0.,1.2,3.,1.2,0.,1.2
1981-08-24 21:08:18.250 ,7,0,0.,1.2,0.,1.2,4.,1.2,0.,1.2
1981-08-24 21:08:19.450 ,7,0,0.,1.2,0.,1.2,4.,1.2,0.,1.2
1981-08-24 21:08:20.650 ,7,0,0.,1.2,0.,1.2,2.,1.2,0.,1.2
1981-08-24 21:08:21.850 ,7,0,0.,1.2,0.,1.2,5.,1.2,0.,1.2
1981-08-24 21:08:23.050 ,7,0,0.,1.2,0.,1.2,6.,1.2,0.,1.2
1981-08-24 21:08:24.250 ,7,0,0.,1.2,0.,1.2,7.,1.2,0.,1.2
1981-08-24 21:08:25.450 ,7,0,0.,1.2,0.,1.2,3.,1.2,0.,1.2
1981-08-24 21:08:26.650 ,7,0,0.,1.2,0.,1.2,9.,1.2,0.,1.2
1981-08-24 21:08:27.850 ,7,0,0.,1.2,0.,1.2,6.,1.2,0.,1.2
1981-08-24 21:08:29.050 ,7,0,0.,1.2,0.,1.2,5.,1.2,0.,1.2
1981-08-24 21:08:30.250 ,7,0,0.,1.2,0.,1.2,2.,1.2,0.,1.2
1981-08-24 21:08:31.450 ,7,0,0.,1.2,0.,1.2,7.,1.2,0.,1.2
1981-08-24 21:08:32.650 ,7,0,0.,1.2,0.,1.2,6.,1.2,0.,1.2
1981-08-24 21:08:33.850 ,7,0,0.,1.2,0.,1.2,8.,1.2,0.,1.2
1981-08-24 21:08:35.050 ,7,0,0.,1.2,0.,1.2,3.,1.2,0.,1.2
1981-08-24 21:08:36.250 ,7,0,0.,1.2,0.,1.2,2.,1.2,0.,1.2
1981-08-24 21:08:37.450 ,7,0,0.,1.2,0.,1.2,4.,1.2,0.,1.2